sat.trackr.live / text

‹ back to catalog

STARLINK-36170

NORAD 67083 · 2025-298J

PAYLOAD ACTIVE UNKNOWN

§ Identity

Operator
Country
US
Launch date
2025-12-14
Launch site
AFWTR
Launch vehicle
Mass (kg)
RCS (m²)

Purposes: comms

External: N2YO · Heavens-Above · Gunter

§ Orbital elements

Epoch: 2026-09-19T22:46:20.792064Z

Period
96.11 min
Inclination
69.9998°
Eccentricity
0.0003771
Mean motion
14.98333834 rev/d
Perigee alt
569.4 km
Apogee alt
574.7 km
Semi-major
6,950.2 km
B*
2.5320e-4
RAAN
244.7288°
Arg perigee
269.7551°
Mean anomaly
90.3176°
Rev number
4,230

§ Raw data

STARLINK-361701 67083U 25298J   26262.94885176  .00002930  00000+0  25320-3 0  99942 67083  69.9998 244.7288 0003771 269.7551  90.3176 14.98333834 42305

JSON: /api/v1/satellites/67083 · /tle

For live sub-satellite position, see the globe view (requires WebGL).

§ Visibility from observer

Set your observer location to see the next 7 days of passes ≥ 10°. The values pass through the URL so the page stays shareable.

No JS? Fill the form by hand. The geolocation button needs JavaScript.